Regional Weather Roundup
Issued by NWS Sterling, VA

Home | Current Version | Previous Version | Graphics & Text | Print | Product List | Glossary On
Versions: 1 2 3 4 5 6 7 8 9 10 11 12 13 14 15 16 17 18 19 20 21 22 23 24 25 26 27 28 29 30 31 32 33 34 35 36 37 38 39 40 41 42 43 44 45 46 47 48 49 50
000
ASUS41 KLWX 222310
RWRLWX

REGIONAL WEATHER ROUNDUP
NATIONAL WEATHER SERVICE BALTIMORE MD/WASHINGTON DC
700 PM EDT MON SEP 22 2014

Note: "FAIR" indicates few or no clouds below 12,000 feet
with no significant weather and/or obstructions to visibility.
 TC=TEMPERATURE CELSIUS

 * =Non NWS site. Station does not report precipitation (e.g. rain,
    snow, etc.), thunder, or fog.

DCZ001-MDZ009-015-VAZ040>042-051-053>054-230000-
WASHINGTON METRO

CITY           SKY/WX    TMP DP  RH WIND       PRES   REMARKS
WASHINGTON NAT MOCLDY    69  43  38 N10       30.09R
DULLES         MOCLDY    65  43  44 N12       30.10R
ANDREWS AFB    PTCLDY    65  44  47 N13       30.09R
QUANTICO       PTCLDY    66  48  52 NW7       30.10R
COLLEGE PARK*  PTCLDY    64  43  45 N7        30.09R
LEESBURG*      MOCLDY    64  46  52 N6        30.11R
MANASSAS*      MOCLDY    66  46  48 N9        30.10R
GAITHERSBURG*  PTCLDY    61  43  51 NW6       30.13S

$$

MDZ006>007-011-014-230000-
BALTIMORE METRO

CITY           SKY/WX    TMP DP  RH WIND       PRES   REMARKS
BWI AIRPORT    MOCLDY    64  44  48 NW8       30.09R
MD SCIENCE CTR   N/A     67  41  38 MISG      30.09R
MARTIN STATE   PTCLDY    66  45  45 NW10      30.09R
ANNAPOLIS      PTCLDY    66  47  50 MISG      30.08R
FORT MEADE*    PTCLDY    61  45  55 NW5       30.11R

$$

MDZ012-015-019>023-230000-
MARYLAND EASTERN SHORE

CITY           SKY/WX    TMP DP  RH WIND       PRES   REMARKS
OCEAN CITY     CLEAR     66  50  56 NW5       30.06R
SALISBURY      PTCLDY    69  51  52 W6        30.06R
BAY BRIDGE AP*   N/A     66  45  45 NW10G17   30.08R
CAMBRIDGE*     MOCLDY    70  50  49 W3        30.07R

$$

MDZ017>025-230000-
SOUTHERN MARYLAND

CITY           SKY/WX    TMP DP  RH WIND       PRES   REMARKS
PATUXENT RIVER PTCLDY    68  44  42 N7        30.07R
ST INIGOES     CLEAR     68  45  43 CALM      30.07R
LEONARDTOWN*   CLEAR     66  45  45 CALM      30.09R

$$

MDZ003>005-230000-
NORTH CENTRAL MARYLAND

CITY           SKY/WX    TMP DP  RH WIND       PRES   REMARKS
FREDERICK*     CLEAR     64  46  52 N9        30.14R
HAGERSTOWN APT PTCLDY    60  42  51 N13       30.12R
WESTMINSTER*   PTCLDY    63  43  48 NW9       30.11R

$$

MDZ501>502-230000-
WESTERN MARYLAND

CITY           SKY/WX    TMP DP  RH WIND       PRES   REMARKS
OAKLAND*       MOCLDY    48  43  81 W8        30.18R
CUMBERLAND*    CLEAR     61  39  44 NW3       30.20R

$$

VAZ025>031-230000-
SHENANDOAH VALLEY

CITY           SKY/WX    TMP DP  RH WIND       PRES   REMARKS
WINCHESTER*    PTCLDY    64  41  42 W10       30.12R
STAUNTON*      MOCLDY    68  41  38 N8        30.13R

$$

WVZ021-048>050-054>055-230000-
EASTERN WEST VIRGINIA PANHANDLE

CITY           SKY/WX    TMP DP  RH WIND       PRES   REMARKS
MARTINSBURG    PTCLDY    65  39  38 NW10      30.12R
PETERSBURG*    PTCLDY    60  40  48 W8        30.17R

$$

VAZ036>039-050-230000-
CENTRAL FOOTHILLS

CITY           SKY/WX    TMP DP  RH WIND       PRES   REMARKS
CHARLOTTESVILL MOCLDY    66  47  50 N5        30.10R
ORANGE*        MOCLDY    64  45  48 N5        30.12R

$$

VAZ055>057-230000-
NORTH AND CENTRAL PIEDMONT

CITY           SKY/WX    TMP DP  RH WIND       PRES   REMARKS
FREDERICKSBRG* PTCLDY    69  47  44 NW5       30.09R
STAFFORD*      PTCLDY    62  48  60 CALM      30.13R

$$

NCZ024-NYZ072-PAZ021-071-VAZ022-071-230000-
OTHER REGIONAL OBSERVATIONS

CITY           SKY/WX    TMP DP  RH WIND       PRES   REMARKS
NEW YORK CITY  CLEAR     62  40  44 VRB7G18   30.05R
PHILADELPHIA   MOCLDY    67  45  45 NW15G21   30.06R
PITTSBURGH     MOCLDY    55  42  61 N9        30.20R
ROANOKE        MOCLDY    66  49  54 W7        30.13R
RICHMOND       PTCLDY    71  46  40 N7        30.07R
RALEIGH        MOCLDY    67  57  70 CALM      30.09R

$$

ANZ530>537-230000-
MARINE OBSERVATIONS

STATION/POSITION TIME  TEMP    WIND        PRES
                       AIR SEA DIR/SP/G
                 (UTC) (F)     (DEG/KT/KT) (MB)
THOMAS PT LIGHT  2300   67 73  310/ 12/ 14 1019.6R
BALT KEY BRIDGE  2300   68     290/ 17/ 19 1018.4R
COVE POINT       2300   69     350/ 11/ 14 1018.2S
LEWISETTA        2300   71 74  320/  8/  9 1017.9F
SOLOMONS ISLAND  2300      75                N/A
PINEY POINT      2300           30/ 11/ 12   N/A

$$



USA.gov is the U.S. government's official web portal to all federal, state and local government web resources and services.